Hamilton Island Observation History
Time Wind Speed Temp Pressure Rel. Hum Rain
30/10:00am ESE 19-21 kts 27.6°c 1014.3 hPa 69% 0.2mm
30/09:30am ESE 19-23 kts 27.5°c 1014.3 hPa 70% 0.0mm
30/09:00am ESE 19-23 kts 27.4°c 1014.2 hPa 72% 0.4mm
30/08:30am ESE 20-24 kts 26.7°c 1014.0 hPa 73% 0.4mm
30/08:00am ESE 19-24 kts 27.0°c 1013.6 hPa 73% 0.4mm
30/07:30am ESE 18-22 kts 26.6°c 1013.2 hPa 75% 0.4mm
30/07:00am ESE 19-22 kts 26.2°c 1012.9 hPa 78% 0.4mm
30/06:30am ESE 16-21 kts 26.0°c 1012.8 hPa 80% 0.4mm
30/06:00am ESE 17-20 kts 25.7°c 1012.2 hPa 81% 0.4mm
30/05:30am ESE 17-20 kts 25.5°c 1012.0 hPa 80% 0.4mm
30/05:00am ESE 18-22 kts 25.5°c 1011.9 hPa 80% 0.4mm
30/04:30am ESE 17-20 kts 25.6°c 1011.7 hPa 79% 0.4mm
30/04:00am SE 17-19 kts 25.4°c 1012.1 hPa 80% 0.4mm
30/03:30am SE 18-22 kts 25.6°c 1012.2 hPa 82% 0.4mm
30/03:00am ESE 19-25 kts 25.6°c 1012.3 hPa 79% 0.4mm
30/02:30am ESE 19-23 kts 25.6°c 1012.5 hPa 78% 0.4mm
30/02:00am SE 19-22 kts 25.6°c 1012.7 hPa 81% 0.4mm
30/01:30am ESE 19-23 kts 25.7°c 1012.9 hPa 78% 0.4mm
30/01:00am SE 17-21 kts 25.7°c 1013.5 hPa 81% 0.4mm
30/12:30am ESE 19-23 kts 25.8°c 1013.7 hPa 77% 0.4mm
30/12:00am ESE 18-21 kts 25.9°c 1013.9 hPa 82% 0.4mm
Time Wind Speed Temp Pressure Rel. Hum Rain
29/11:30pm ESE 19-23 kts 25.8°c 1014.0 hPa 80% 0.4mm
29/11:00pm ESE 19-22 kts 25.9°c 1014.1 hPa 81% 0.4mm
29/10:30pm ESE 18-22 kts 25.9°c 1014.2 hPa 79% 0.4mm
29/10:00pm ESE 18-22 kts 25.9°c 1014.4 hPa 77% 0.4mm
29/09:30pm ESE 20-25 kts 26.0°c 1014.3 hPa 76% 0.4mm
29/09:00pm ESE 20-24 kts 25.9°c 1014.2 hPa 76% 0.4mm
29/08:30pm ESE 21-25 kts 26.1°c 1013.9 hPa 78% 0.4mm
29/08:00pm ESE 20-23 kts 26.0°c 1013.7 hPa 80% 0.4mm
29/07:30pm ESE 22-28 kts 25.3°c 1013.5 hPa 86% 0.4mm
29/07:00pm ESE 19-23 kts 26.1°c 1013.2 hPa 85% 0.4mm
29/06:30pm ESE 17-21 kts 25.9°c 1013.0 hPa 85% 0.4mm
29/06:00pm ESE 18-21 kts 25.9°c 1012.8 hPa 82% 0.4mm
29/05:30pm ESE 17-22 kts 25.3°c 1012.4 hPa 88% 0.4mm
29/05:06pm SE 16-26 kts 26.7°c 1012.3 hPa 80% 0.0mm
29/05:00pm SE 16-18 kts 26.6°c 1012.3 hPa 81% 0.0mm
29/04:30pm ESE 19-23 kts 26.5°c 1012.0 hPa 78% 0.0mm
29/04:00pm ESE 18-21 kts 27.1°c 1011.7 hPa 76% 0.0mm
29/03:30pm ESE 18-21 kts 27.3°c 1011.7 hPa 79% 0.0mm
29/03:00pm ESE 15-17 kts 27.7°c 1011.8 hPa 75% 0.0mm
29/02:30pm SE 17-21 kts 28.2°c 1012.1 hPa 76% 0.0mm
29/02:00pm ESE 18-20 kts 27.8°c 1012.1 hPa 74% 0.0mm
29/01:30pm ESE 19-22 kts 27.7°c 1012.2 hPa 75% 0.0mm
29/01:00pm ESE 19-21 kts 28.1°c 1012.5 hPa 73% 0.0mm
29/12:30pm ESE 19-22 kts 28.3°c 1012.8 hPa 73% 0.0mm
29/12:00pm ESE 19-22 kts 28.1°c 1013.0 hPa 73% 0.0mm
29/11:30am ESE 20-23 kts 27.9°c 1013.3 hPa 71% 0.0mm
29/11:00am ESE 19-23 kts 27.8°c 1013.8 hPa 74% 0.0mm
29/10:30am ESE 19-24 kts 27.5°c 1013.9 hPa 71% 0.0mm
29/10:00am ESE 22-25 kts 27.6°c 1014.0 hPa 72% 0.0mm
29/09:30am ESE 19-23 kts 27.2°c 1014.1 hPa 72% 0.0mm
29/09:00am ESE 19-23 kts 27.2°c 1014.0 hPa 71% 1.8mm
29/08:30am ESE 22-26 kts 27.0°c 1013.7 hPa 73% 1.8mm
29/08:00am SE 19-23 kts 26.1°c 1013.4 hPa 80% 1.8mm
29/07:30am SE 19-22 kts 26.7°c 1013.1 hPa 79% 1.8mm
29/07:00am SE 18-21 kts 26.0°c 1012.9 hPa 85% 1.8mm
29/06:30am SE 18-21 kts 25.4°c 1012.5 hPa 84% 1.8mm
29/06:00am ESE 19-22 kts 25.6°c 1012.2 hPa 79% 1.8mm
29/05:30am ESE 18-21 kts 25.6°c 1012.0 hPa 78% 1.8mm
29/05:00am SE 16-21 kts 25.5°c 1011.8 hPa 78% 1.8mm
29/04:30am SE 19-22 kts 25.5°c 1011.5 hPa 80% 1.8mm
29/04:00am SE 20-26 kts 25.5°c 1011.3 hPa 80% 1.8mm
29/03:30am ESE 19-23 kts 25.6°c 1011.3 hPa 80% 1.8mm
29/03:00am ESE 18-22 kts 25.6°c 1011.6 hPa 81% 1.8mm
29/02:30am ESE 21-24 kts 25.4°c 1011.8 hPa 80% 1.8mm
29/02:24am ESE 21-25 kts 25.2°c 1011.9 hPa 80% 1.8mm
29/02:14am ESE 20-26 kts 25.5°c 1012.0 hPa 86% 1.8mm
29/02:00am ESE 19-23 kts 25.4°c 1012.2 hPa 86% 1.8mm
29/01:44am SE 18-22 kts 24.7°c 1012.3 hPa 91% 1.8mm
29/01:30am SE 18-25 kts 25.0°c 1012.4 hPa 89% 1.8mm
29/01:14am SSE 17-19 kts 25.1°c 1012.6 hPa 92% 1.4mm
29/01:04am SE 17-20 kts 25.3°c 1012.7 hPa 91% 1.4mm
29/01:00am SE 18-20 kts 25.2°c 1012.7 hPa 91% 1.4mm
29/12:53am SE 19-21 kts 25.2°c 1012.9 hPa 91% 1.4mm
29/12:30am SE 16-18 kts 25.1°c 1013.1 hPa 88% 1.4mm
29/12:00am SE 19-21 kts 25.3°c 1013.3 hPa 88% 1.4mm
Time Wind Speed Temp Pressure Rel. Hum Rain
28/11:30pm SE 18-20 kts 25.5°c 1013.3 hPa 84% 1.4mm
28/11:00pm SE 18-20 kts 25.5°c 1013.4 hPa 86% 1.4mm
28/10:30pm SE 19-24 kts 25.5°c 1013.5 hPa 88% 1.4mm
28/10:00pm SE 17-20 kts 25.4°c 1013.6 hPa 91% 1.4mm
28/09:32pm SE 20-24 kts 25.0°c 1013.6 hPa 88% 1.4mm
28/09:30pm SE 20-24 kts 25.0°c 1013.7 hPa 87% 1.4mm
28/09:19pm SE 20-26 kts 24.9°c 1013.6 hPa 92% 1.4mm
28/09:00pm SE 20-23 kts 25.8°c 1013.3 hPa 85% 1.2mm
28/08:30pm SE 19-22 kts 25.9°c 1013.3 hPa 85% 1.2mm
28/08:00pm SE 19-21 kts 25.9°c 1012.9 hPa 84% 1.2mm
28/07:30pm SE 20-23 kts 26.0°c 1012.6 hPa 86% 1.2mm
28/07:00pm SE 19-21 kts 25.9°c 1012.5 hPa 82% 1.2mm
28/06:30pm SE 17-21 kts 25.8°c 1012.3 hPa 79% 1.2mm
28/06:00pm SE 19-21 kts 26.0°c 1012.1 hPa 78% 1.2mm
28/05:30pm SE 19-22 kts 26.1°c 1011.8 hPa 79% 1.2mm
28/05:00pm SE 20-23 kts 26.3°c 1011.8 hPa 77% 1.2mm
28/04:30pm SE 20-23 kts 26.4°c 1011.6 hPa 79% 1.2mm
28/04:00pm SE 18-21 kts 26.7°c 1011.6 hPa 78% 1.2mm
28/03:30pm SE 20-23 kts 26.3°c 1011.7 hPa 79% 1.2mm
28/03:00pm SE 19-23 kts 26.6°c 1012.0 hPa 80% 1.2mm
28/02:30pm SE 19-23 kts 26.5°c 1012.3 hPa 82% 1.2mm
28/02:00pm SE 20-23 kts 26.3°c 1012.5 hPa 82% 1.2mm
28/01:30pm SE 21-25 kts 27.2°c 1012.7 hPa 84% 1.2mm
28/01:00pm SSE 21-25 kts 25.0°c 1013.3 hPa 88% 1.2mm
28/12:54pm SSE 21-25 kts 25.0°c 1013.3 hPa 89% 1.2mm
28/12:39pm SSE 20-23 kts 25.3°c 1013.3 hPa 87% 1.2mm
28/12:31pm SE 16-20 kts 25.0°c 1013.4 hPa 92% 1.2mm
28/12:30pm SE 15-19 kts 25.0°c 1013.4 hPa 92% 1.2mm
28/12:16pm SE 19-23 kts 24.6°c 1013.7 hPa 93% 1.2mm
28/12:08pm SE 21-27 kts 24.9°c 1013.8 hPa 92% 1.2mm
28/12:00pm SE 19-21 kts 25.2°c 1014.0 hPa 91% 1.2mm
28/11:56am SSE 19-22 kts 24.9°c 1014.0 hPa 90% 1.2mm
28/11:34am SSE 22-27 kts 24.2°c 1014.1 hPa 94% 0.8mm
28/11:30am SE 21-25 kts 24.8°c 1014.2 hPa 93% 0.4mm
28/11:25am SE 21-24 kts 25.2°c 1014.2 hPa 91% 0.2mm
28/11:00am SE 23-28 kts 26.6°c 1014.2 hPa 87% 0.2mm
28/10:30am SE 17-20 kts 27.6°c 1014.4 hPa 80% 0.0mm
28/10:00am ESE 17-22 kts 26.6°c 1014.5 hPa 78% 0.0mm
28/09:30am SE 19-24 kts 25.6°c 1014.3 hPa 86% 0.0mm
28/09:18am SE 15-23 kts 25.5°c 1014.2 hPa 86% 0.0mm
28/09:00am ESE 10-13 kts 24.2°c 1014.4 hPa 89% 12.4mm
28/08:46am ESE 20-33 kts 23.7°c 1014.3 hPa 87% 12.4mm
28/08:35am ESE 18-29 kts 25.9°c 1014.0 hPa 81% 12.2mm
28/08:30am ESE 16-21 kts 26.1°c 1013.9 hPa 78% 12.2mm
28/08:00am ESE 19-22 kts 25.8°c 1013.5 hPa 81% 12.2mm
28/07:30am ESE 21-24 kts 25.8°c 1013.0 hPa 80% 12.2mm
28/07:00am ESE 24-28 kts 25.3°c 1012.7 hPa 81% 12.2mm
28/06:47am ESE 25-28 kts 25.4°c 1012.6 hPa 84% 12.2mm
28/06:30am ESE 25-30 kts 24.9°c 1012.3 hPa 88% 12.2mm
28/06:19am ESE 25-35 kts 25.1°c 1012.3 hPa 87% 11.6mm
28/06:09am ESE 22-27 kts 24.9°c 1012.4 hPa 89% 11.6mm
28/06:02am ESE 23-28 kts 24.9°c 1012.2 hPa 87% 11.6mm
28/06:00am ESE 23-28 kts 25.0°c 1012.2 hPa 88% 11.6mm
28/05:30am ESE 22-25 kts 24.7°c 1012.4 hPa 87% 11.6mm
28/05:27am ESE 22-27 kts 24.7°c 1012.4 hPa 88% 11.6mm
28/05:00am ESE 25-30 kts 24.9°c 1012.2 hPa 85% 11.6mm
28/04:45am ESE 27-31 kts 24.9°c 1012.0 hPa 83% 11.6mm
28/04:34am ESE 27-32 kts 24.8°c 1011.7 hPa 84% 11.6mm
28/04:30am ESE 26-30 kts 24.7°c 1011.9 hPa 87% 11.6mm
28/04:26am ESE 26-31 kts 24.5°c 1011.8 hPa 87% 11.6mm
28/04:00am ESE 27-33 kts 24.3°c 1011.9 hPa 89% 11.6mm
28/03:45am ESE 24-34 kts 24.3°c 1011.9 hPa 89% 11.4mm
28/03:30am ESE 26-31 kts 24.9°c 1012.0 hPa 85% 11.4mm
28/03:17am ESE 29-33 kts 24.8°c 1011.9 hPa 84% 11.4mm
28/03:11am ESE 29-38 kts 24.7°c 1012.0 hPa 87% 11.4mm
28/03:05am ESE 28-38 kts 24.7°c 1011.8 hPa 88% 11.4mm
28/03:00am ESE 27-33 kts 24.7°c 1012.0 hPa 87% 11.2mm
28/02:37am ESE 27-34 kts 24.8°c 1012.1 hPa 89% 11.2mm
28/02:30am ESE 27-34 kts 24.7°c 1012.1 hPa 89% 11.2mm
28/02:19am ESE 24-35 kts 24.6°c 1012.3 hPa 92% 11.2mm
28/02:15am ESE 23-28 kts 24.5°c 1012.4 hPa 92% 11.2mm
28/02:00am ESE 22-27 kts 24.4°c 1012.5 hPa 92% 11.0mm
28/01:48am SE 24-30 kts 24.3°c 1012.6 hPa 93% 11.0mm
28/01:45am SE 26-31 kts 23.9°c 1012.7 hPa 94% 11.0mm
28/01:32am ESE 31-36 kts 23.8°c 1012.7 hPa 94% 10.8mm
28/01:30am ESE 30-36 kts 23.8°c 1012.6 hPa 94% 10.8mm
28/01:21am ESE 29-39 kts 24.2°c 1012.8 hPa 94% 10.8mm
28/01:17am ESE 30-39 kts 24.0°c 1012.8 hPa 93% 10.8mm
28/01:15am ESE 29-39 kts 24.0°c 1012.8 hPa 92% 10.8mm
28/01:11am ESE 26-39 kts 24.8°c 1012.8 hPa 92% 10.8mm
28/01:04am ESE 26-35 kts 24.7°c 1012.9 hPa 92% 10.8mm
28/01:00am SE 25-35 kts 24.4°c 1012.9 hPa 91% 10.8mm
28/12:57am SE 24-35 kts 25.0°c 1013.0 hPa 90% 10.8mm
28/12:30am SE 25-29 kts 25.3°c 1013.2 hPa 87% 10.8mm
28/12:00am SE 25-31 kts 25.3°c 1013.5 hPa 84% 10.8mm